When you browse on this site, cookies collect data to enhance your experience and personalize the content and advertising you see.
Visit our Privacy Policy to learn more. By continuing to use the site, you agree to this use of cookies and data.
  • In Hungary
  • List of Countries
  • For 7 days
  • Water Temperature
  • Satellite Maps
  • Weather Map
  • News
  • Weather Widgets
  • user-avatar
    Login

    Hourly Weather Krivyi Rih

    Today, 22 April, Monday

    Time Temperature Precipitation Wind Pressure Humidity
    00:00 +10°C° 0 mm 2 mps 763 mmHg 46%
    01:00 +9°C° 0 mm 2 mps 763 mmHg 48%
    02:00 +9°C° 0 mm 2 mps 763 mmHg 50%
    03:00 +9°C° 0 mm 3 mps 763 mmHg 52%
    04:00 +8°C° 0 mm 3 mps 763 mmHg 54%
    05:00 +8°C° 0 mm 3 mps 763 mmHg 56%
    06:00 +10°C° 0 mm 3 mps 764 mmHg 51%
    07:00 +11°C° 0 mm 4 mps 764 mmHg 46%
    08:00 +12°C° 0 mm 4 mps 764 mmHg 41%
    09:00 +13°C° 0 mm 5 mps 764 mmHg 38%
    10:00 +14°C° 0 mm 5 mps 764 mmHg 35%
    11:00 +15°C° 0 mm 6 mps 764 mmHg 32%
    12:00 +16°C° 0 mm 5 mps 764 mmHg 32%
    13:00 +16°C° 0 mm 5 mps 764 mmHg 31%
    14:00 +16°C° 0 mm 5 mps 764 mmHg 31%
    15:00 +17°C° 0 mm 4 mps 764 mmHg 32%
    16:00 +17°C° 0 mm 4 mps 764 mmHg 33%
    17:00 +15°C° 0 mm 4 mps 764 mmHg 35%
    18:00 +14°C° 0 mm 3 mps 764 mmHg 38%
    19:00 +13°C° 0 mm 3 mps 765 mmHg 41%
    20:00 +13°C° 0 mm 3 mps 765 mmHg 44%
    21:00 +12°C° 0 mm 3 mps 765 mmHg 46%
    22:00 +12°C° 0 mm 3 mps 765 mmHg 47%
    23:00 +12°C° 0 mm 3 mps 766 mmHg 48%

    Tomorrow, 23 April, Tuesday

    Time Temperature Precipitation Wind Pressure Humidity
    00:00 +11°C° 0 mm 3 mps 766 mmHg 50%
    01:00 +11°C° 0 mm 3 mps 766 mmHg 53%
    02:00 +10°C° 0 mm 3 mps 766 mmHg 55%
    03:00 +10°C° 0 mm 3 mps 766 mmHg 56%
    04:00 +10°C° 0 mm 2 mps 766 mmHg 56%
    05:00 +10°C° 0 mm 2 mps 766 mmHg 57%
    06:00 +12°C° 0 mm 2 mps 767 mmHg 53%
    07:00 +13°C° 0 mm 3 mps 767 mmHg 49%
    08:00 +14°C° 0 mm 3 mps 767 mmHg 46%
    09:00 +16°C° 0 mm 3 mps 767 mmHg 41%
    10:00 +17°C° 0 mm 3 mps 767 mmHg 36%
    11:00 +18°C° 0 mm 4 mps 767 mmHg 31%
    12:00 +18°C° 0 mm 3 mps 767 mmHg 31%
    13:00 +18°C° 0 mm 3 mps 767 mmHg 31%
    14:00 +18°C° 0 mm 3 mps 767 mmHg 31%
    15:00 +18°C° 0 mm 2 mps 767 mmHg 32%
    16:00 +18°C° 0 mm 2 mps 767 mmHg 33%
    17:00 +18°C° 0 mm 2 mps 767 mmHg 34%
    18:00 +16°C° 0 mm 2 mps 767 mmHg 37%
    19:00 +15°C° 0 mm 2 mps 767 mmHg 40%
    20:00 +13°C° 0 mm 2 mps 767 mmHg 43%
    21:00 +13°C° 0 mm 2 mps 767 mmHg 46%
    22:00 +12°C° 0 mm 1 mps 768 mmHg 49%
    23:00 +11°C° 0 mm 1 mps 768 mmHg 51%

    Day after tomorrow, 24 April, Wednesday

    Time Temperature Precipitation Wind Pressure Humidity
    00:00 +11°C° 0 mm 1 mps 768 mmHg 53%
    01:00 +11°C° 0 mm 1 mps 768 mmHg 54%
    02:00 +9°C° 0 mm 0 mps 768 mmHg 55%
    03:00 +10°C° 0 mm 1 mps 768 mmHg 56%
    04:00 +10°C° 0 mm 1 mps 768 mmHg 56%
    05:00 +10°C° 0 mm 1 mps 768 mmHg 57%
    06:00 +12°C° 0 mm 2 mps 768 mmHg 53%
    07:00 +14°C° 0 mm 2 mps 768 mmHg 49%
    08:00 +16°C° 0 mm 3 mps 768 mmHg 45%
    09:00 +17°C° 0 mm 3 mps 768 mmHg 41%
    10:00 +18°C° 0 mm 3 mps 768 mmHg 37%
    11:00 +19°C° 0 mm 3 mps 768 mmHg 33%
    12:00 +19°C° 0 mm 3 mps 768 mmHg 32%
    13:00 +20°C° 0 mm 3 mps 768 mmHg 31%
    14:00 +20°C° 0 mm 2 mps 768 mmHg 31%
    15:00 +20°C° 0 mm 2 mps 767 mmHg 32%
    16:00 +20°C° 0 mm 2 mps 767 mmHg 32%
    17:00 +20°C° 0 mm 2 mps 767 mmHg 33%
    18:00 +18°C° 0 mm 2 mps 767 mmHg 37%
    19:00 +17°C° 0 mm 2 mps 767 mmHg 41%
    20:00 +15°C° 0 mm 2 mps 767 mmHg 45%
    21:00 +15°C° 0 mm 1 mps 768 mmHg 46%
    22:00 +14°C° 0 mm 1 mps 768 mmHg 47%
    23:00 +13°C° 0 mm 1 mps 768 mmHg 49%

    25 April, Thursday

    Time Temperature Precipitation Wind Pressure Humidity
    00:00 +13°C° 0 mm 1 mps 768 mmHg 51%
    01:00 +12°C° 0 mm 1 mps 768 mmHg 53%
    02:00 +12°C° 0 mm 1 mps 768 mmHg 55%
    03:00 +12°C° 0 mm 1 mps 768 mmHg 56%
    04:00 +12°C° 0 mm 1 mps 768 mmHg 56%
    05:00 +10°C° 0 mm 2 mps 768 mmHg 57%
    06:00 +13°C° 0 mm 2 mps 768 mmHg 53%
    07:00 +15°C° 0 mm 2 mps 768 mmHg 49%
    08:00 +18°C° 0 mm 2 mps 768 mmHg 44%
    09:00 +19°C° 0 mm 2 mps 768 mmHg 41%
    10:00 +20°C° 0 mm 2 mps 768 mmHg 38%
    11:00 +21°C° 0 mm 2 mps 768 mmHg 35%
    12:00 +23°C° 0 mm 2 mps 767 mmHg 35%
    13:00 +23°C° 0 mm 2 mps 767 mmHg 35%
    14:00 +24°C° 0 mm 2 mps 767 mmHg 34%
    15:00 +23°C° 0 mm 1 mps 766 mmHg 37%
    16:00 +23°C° 0 mm 1 mps 766 mmHg 40%
    17:00 +23°C° 0 mm 1 mps 766 mmHg 43%
    18:00 +19°C° 0 mm 0 mps 766 mmHg 45%
    19:00 +18°C° 0 mm 0 mps 766 mmHg 48%
    20:00 +17°C° 0 mm 0 mps 766 mmHg 50%
    21:00 +16°C° 0 mm 0 mps 765 mmHg 52%
    22:00 +16°C° 0 mm 0 mps 765 mmHg 54%
    23:00 +16°C° 0 mm 1 mps 765 mmHg 56%

    26 April, Friday

    Time Temperature Precipitation Wind Pressure Humidity
    00:00 +16°C° 0 mm 1 mps 765 mmHg 57%
    01:00 +15°C° 0 mm 1 mps 765 mmHg 58%
    02:00 +15°C° 0 mm 1 mps 765 mmHg 59%
    03:00 +15°C° 0 mm 1 mps 765 mmHg 60%
    04:00 +14°C° 0 mm 1 mps 765 mmHg 62%
    05:00 +14°C° 0 mm 1 mps 765 mmHg 63%
    06:00 +16°C° 0 mm 2 mps 764 mmHg 58%
    07:00 +18°C° 0 mm 2 mps 764 mmHg 54%
    08:00 +20°C° 0 mm 2 mps 764 mmHg 49%
    09:00 +21°C° 0 mm 2 mps 764 mmHg 45%
    10:00 +24°C° 0 mm 2 mps 764 mmHg 41%
    11:00 +25°C° 0 mm 3 mps 763 mmHg 36%
    12:00 +25°C° 0 mm 3 mps 763 mmHg 36%
    13:00 +25°C° 0 mm 2 mps 763 mmHg 36%
    14:00 +25°C° 0 mm 2 mps 762 mmHg 36%
    15:00 +24°C° 0 mm 2 mps 762 mmHg 38%
    16:00 +24°C° 0 mm 2 mps 762 mmHg 40%
    17:00 +23°C° 0 mm 2 mps 761 mmHg 42%
    18:00 +21°C° 0 mm 2 mps 761 mmHg 44%
    19:00 +21°C° 0 mm 1 mps 761 mmHg 46%
    20:00 +20°C° 0 mm 1 mps 761 mmHg 48%
    21:00 +20°C° 0 mm 1 mps 761 mmHg 49%
    22:00 +19°C° 0 mm 1 mps 761 mmHg 49%
    23:00 +17°C° 0 mm 0 mps 761 mmHg 49%

    27 April, Saturday

    Time Temperature Precipitation Wind Pressure Humidity
    00:00 +16°C° 0 mm 0 mps 761 mmHg 52%
    01:00 +16°C° 0 mm 1 mps 761 mmHg 55%
    02:00 +16°C° 0 mm 1 mps 761 mmHg 58%
    03:00 +15°C° 0 mm 1 mps 761 mmHg 59%
    04:00 +15°C° 0 mm 1 mps 761 mmHg 61%
    05:00 +14°C° 0 mm 0 mps 761 mmHg 62%
    06:00 +16°C° 0 mm 1 mps 761 mmHg 60%
    07:00 +18°C° 0 mm 1 mps 761 mmHg 57%
    08:00 +19°C° 0 mm 1 mps 761 mmHg 55%
    09:00 +21°C° 0 mm 1 mps 761 mmHg 50%
    10:00 +21°C° 0 mm 2 mps 761 mmHg 46%
    11:00 +23°C° 0 mm 2 mps 761 mmHg 41%
    12:00 +23°C° 0 mm 2 mps 760 mmHg 40%
    13:00 +24°C° 0 mm 2 mps 760 mmHg 38%
    14:00 +24°C° 0 mm 3 mps 760 mmHg 37%
    15:00 +23°C° 0 mm 2 mps 760 mmHg 39%
    16:00 +23°C° 0 mm 2 mps 760 mmHg 42%
    17:00 +21°C° 0 mm 2 mps 760 mmHg 45%
    18:00 +22°C° 0 mm 1 mps 760 mmHg 47%
    19:00 +21°C° 0 mm 1 mps 760 mmHg 48%
    20:00 +20°C° 0 mm 1 mps 760 mmHg 49%
    21:00 +20°C° 0 mm 1 mps 760 mmHg 50%
    22:00 +20°C° 0 mm 1 mps 760 mmHg 51%
    23:00 +19°C° 0 mm 1 mps 760 mmHg 52%
    Show more